Вернуться в каталог

ONEWEB-0636

АктивенСвязьPO
NORAD 56077·PAYLOAD·🇬🇧 United Kingdom

Запущен Mar 26, 2023 с Satish Dhawan Space Centre

Loading…

Ближайшие Пролёты (ближайшие 24 часа)

TLE

СвежийSource: CelesTrak SupGP

Эпоха: Sep 14, 2026, 14:06 UTC

1 56077C 23043AH  26257.58801343 -.00001547  00000+0 -41139-2 0  2576
2 56077  87.8981 241.3756 0002207  90.2219 309.5705 13.15546323    13

Отслеживайте ONEWEB-0636 в реальном времени с AllMySat

Download on the App Store